Location: Gombori
(14.9797°N, 2.9419°W)
Time: 01:19:55
(UTC+00:00)

Cosmos 2150 Rocket - Pass Details

Date: 06 December 2021
Orbit: 748 x 808 km, 74.0° (Epoch: 23 January)

Event Time Altitude Azimuth Distance (km) Brightness Sun altitude
Rises 18:39:53 0° 6° (N) 3,216 7.0 -14.0°
Reaches altitude 10° 18:42:39 10° 20° (NNE) 2,300 6.1 -14.6°
Maximum altitude 18:46:51 24° 74° (ENE) 1,545 5.0 -15.6°
Drops below altitude 10° 18:51:05 10° 128° (SE) 2,330 6.2 -16.6°
Sets 18:53:54 0° 141° (SE) 3,268 7.1 -17.2°
